Time,TemperatureF,DewpointF,PressureIn,WindDirection,WindDirectionDegrees,WindSpeedMPH,WindSpeedGustMPH,Humidity,HourlyPrecipIn,Conditions,Clouds,dailyrainin,SoftwareType,DateUTC
2013-08-12 00:02:00,57.8,56.0,30.08,West,275,0.0,0.0,93,0.00,,,0.00,weatherlink.com 1.10,2013-08-12 04:02:00,
2013-08-12 00:17:00,57.6,56.0,30.07,West,275,0.0,0.0,94,0.00,,,0.00,weatherlink.com 1.10,2013-08-12 04:17:00,
2013-08-12 00:32:00,57.4,56.0,30.07,West,275,0.0,0.0,94,0.00,,,0.00,weatherlink.com 1.10,2013-08-12 04:32:00,
2013-08-12 00:47:00,57.4,56.0,30.07,West,275,0.0,0.0,94,0.00,,,0.00,weatherlink.com 1.10,2013-08-12 04:47:00,
2013-08-12 01:02:00,57.3,56.0,30.06,West,275,0.0,0.0,94,0.00,,,0.00,weatherlink.com 1.10,2013-08-12 05:02:00,
2013-08-12 01:17:00,57.0,55.0,30.06,West,275,0.0,0.0,94,0.00,,,0.00,weatherlink.com 1.10,2013-08-12 05:17:00,
2013-08-12 01:32:00,56.8,55.0,30.06,West,275,0.0,0.0,95,0.00,,,0.00,weatherlink.com 1.10,2013-08-12 05:32:00,
2013-08-12 01:47:00,56.6,55.0,30.06,West,275,0.0,0.0,94,0.00,,,0.00,weatherlink.com 1.10,2013-08-12 05:47:00,
2013-08-12 02:02:00,56.5,55.0,30.06,West,275,0.0,0.0,95,0.00,,,0.00,weatherlink.com 1.10,2013-08-12 06:02:00,
2013-08-12 02:17:00,56.4,55.0,30.06,West,275,0.0,0.0,95,0.00,,,0.00,weatherlink.com 1.10,2013-08-12 06:17:00,
2013-08-12 02:32:00,56.3,55.0,30.06,West,275,0.0,0.0,95,0.00,,,0.00,weatherlink.com 1.10,2013-08-12 06:32:00,
2013-08-12 02:47:00,56.1,55.0,30.05,West,275,0.0,0.0,95,0.00,,,0.00,weatherlink.com 1.10,2013-08-12 06:47:00,
2013-08-12 03:02:00,56.0,55.0,30.06,West,275,0.0,0.0,95,0.00,,,0.00,weatherlink.com 1.10,2013-08-12 07:02:00,
2013-08-12 03:17:00,56.4,55.0,30.05,West,275,0.0,1.0,96,0.00,,,0.00,weatherlink.com 1.10,2013-08-12 07:17:00,
2013-08-12 03:32:00,56.7,56.0,30.05,West,275,0.0,0.0,96,0.00,,,0.00,weatherlink.com 1.10,2013-08-12 07:32:00,
2013-08-12 03:47:00,57.1,56.0,30.05,West,275,0.0,1.0,96,0.00,,,0.00,weatherlink.com 1.10,2013-08-12 07:47:00,
2013-08-12 04:02:00,57.0,56.0,30.05,West,275,0.0,0.0,96,0.00,,,0.00,weatherlink.com 1.10,2013-08-12 08:02:00,
2013-08-12 04:17:00,57.1,56.0,30.05,West,275,0.0,1.0,96,0.00,,,0.00,weatherlink.com 1.10,2013-08-12 08:17:00,
2013-08-12 04:32:00,57.1,56.0,30.05,West,275,0.0,0.0,96,0.00,,,0.00,weatherlink.com 1.10,2013-08-12 08:32:00,
2013-08-12 04:47:00,57.2,56.0,30.04,West,275,0.0,0.0,96,0.00,,,0.00,weatherlink.com 1.10,2013-08-12 08:47:00,
2013-08-12 05:02:00,57.3,56.0,30.04,West,275,0.0,0.0,96,0.00,,,0.00,weatherlink.com 1.10,2013-08-12 09:02:00,
2013-08-12 05:17:00,57.5,56.0,30.04,West,275,0.0,0.0,96,0.00,,,0.00,weatherlink.com 1.10,2013-08-12 09:17:00,
2013-08-12 05:32:00,57.6,57.0,30.05,West,275,0.0,0.0,96,0.00,,,0.00,weatherlink.com 1.10,2013-08-12 09:32:00,
2013-08-12 05:47:00,58.1,57.0,30.05,West,275,0.0,1.0,97,0.00,,,0.00,weatherlink.com 1.10,2013-08-12 09:47:00,
2013-08-12 06:02:00,58.8,58.0,30.05,West,275,0.0,0.0,97,0.00,,,0.00,weatherlink.com 1.10,2013-08-12 10:02:00,
2013-08-12 06:17:00,59.6,59.0,30.05,West,275,0.0,0.0,97,0.00,,,0.00,weatherlink.com 1.10,2013-08-12 10:17:00,
2013-08-12 06:32:00,61.0,60.0,30.05,West,275,0.0,1.0,97,0.00,,,0.00,weatherlink.com 1.10,2013-08-12 10:32:00,
2013-08-12 06:47:00,63.1,62.0,30.05,SW,226,0.0,1.0,97,0.00,,,0.00,weatherlink.com 1.10,2013-08-12 10:47:00,
2013-08-12 07:02:00,64.7,64.0,30.05,SW,227,0.0,1.0,97,0.00,,,0.00,weatherlink.com 1.10,2013-08-12 11:02:00,
2013-08-12 07:18:00,65.8,65.0,30.05,NW,309,0.0,2.0,97,0.00,,,0.00,weatherlink.com 1.10,2013-08-12 11:18:00,
2013-08-12 07:33:00,64.7,64.0,30.06,SSW,192,4.0,6.0,97,0.00,,,0.00,weatherlink.com 1.10,2013-08-12 11:33:00,
2013-08-12 07:48:00,64.4,63.0,30.06,South,182,0.0,4.0,95,0.00,,,0.00,weatherlink.com 1.10,2013-08-12 11:48:00,
2013-08-12 08:03:00,64.4,63.0,30.06,SSE,162,0.0,2.0,94,0.00,,,0.00,weatherlink.com 1.10,2013-08-12 12:03:00,
2013-08-12 08:18:00,65.0,64.0,30.05,SSE,150,0.0,2.0,95,0.00,,,0.00,weatherlink.com 1.10,2013-08-12 12:18:00,
2013-08-12 08:33:00,66.5,65.0,30.04,SSE,160,0.0,2.0,94,0.00,,,0.00,weatherlink.com 1.10,2013-08-12 12:33:00,
2013-08-12 08:48:00,67.6,65.0,30.04,SSE,160,0.0,1.0,91,0.00,,,0.00,weatherlink.com 1.10,2013-08-12 12:48:00,
2013-08-12 09:03:00,68.3,65.0,30.04,SSE,160,0.0,1.0,90,0.00,,,0.00,weatherlink.com 1.10,2013-08-12 13:03:00,
2013-08-12 09:18:00,68.4,65.0,30.05,SSE,161,1.0,1.0,90,0.00,,,0.00,weatherlink.com 1.10,2013-08-12 13:18:00,
2013-08-12 09:33:00,68.3,65.0,30.05,West,260,3.0,3.0,90,0.00,,,0.00,weatherlink.com 1.10,2013-08-12 13:33:00,
2013-08-12 09:48:00,67.7,65.0,30.05,South,176,2.0,3.0,91,0.01,,,0.01,weatherlink.com 1.10,2013-08-12 13:48:00,
2013-08-12 10:03:00,67.7,65.0,30.05,SSE,165,0.0,2.0,91,0.01,,,0.01,weatherlink.com 1.10,2013-08-12 14:03:00,
2013-08-12 10:18:00,68.3,66.0,30.05,SSW,193,1.0,1.0,91,0.01,,,0.01,weatherlink.com 1.10,2013-08-12 14:18:00,
2013-08-12 10:33:00,70.0,66.0,30.05,SSE,161,1.0,2.0,88,0.00,,,0.01,weatherlink.com 1.10,2013-08-12 14:33:00,
2013-08-12 10:48:00,71.4,66.0,30.05,SSE,161,2.0,4.0,84,0.00,,,0.01,weatherlink.com 1.10,2013-08-12 14:48:00,
2013-08-12 11:03:00,71.5,66.0,30.05,West,267,0.0,4.0,83,0.00,,,0.01,weatherlink.com 1.10,2013-08-12 15:03:00,
2013-08-12 11:18:00,71.2,66.0,30.05,West,264,0.0,1.0,84,0.00,,,0.01,weatherlink.com 1.10,2013-08-12 15:18:00,
2013-08-12 11:33:00,71.0,66.0,30.04,West,279,1.0,3.0,85,0.00,,,0.01,weatherlink.com 1.10,2013-08-12 15:33:00,
2013-08-12 11:48:00,70.2,67.0,30.04,West,279,1.0,2.0,88,0.04,,,0.05,weatherlink.com 1.10,2013-08-12 15:48:00,
2013-08-12 12:03:00,69.5,67.0,30.04,West,279,0.0,1.0,91,0.06,,,0.07,weatherlink.com 1.10,2013-08-12 16:03:00,
2013-08-12 12:18:00,69.3,67.0,30.04,West,279,1.0,2.0,91,0.10,,,0.11,weatherlink.com 1.10,2013-08-12 16:18:00,
2013-08-12 12:33:00,70.1,68.0,30.03,South,184,1.0,2.0,94,0.10,,,0.11,weatherlink.com 1.10,2013-08-12 16:33:00,
2013-08-12 12:48:00,71.1,69.0,30.03,SSW,206,1.0,2.0,94,0.06,,,0.11,weatherlink.com 1.10,2013-08-12 16:48:00,
2013-08-12 13:03:00,72.1,70.0,30.02,South,191,1.0,6.0,93,0.04,,,0.11,weatherlink.com 1.10,2013-08-12 17:03:00,
2013-08-12 13:18:00,72.7,70.0,30.02,West,276,3.0,5.0,91,0.00,,,0.11,weatherlink.com 1.10,2013-08-12 17:18:00,
2013-08-12 13:33:00,74.1,71.0,30.02,South,186,1.0,5.0,90,0.00,,,0.11,weatherlink.com 1.10,2013-08-12 17:33:00,
2013-08-12 13:48:00,74.4,71.0,30.01,SSW,194,3.0,5.0,89,0.00,,,0.11,weatherlink.com 1.10,2013-08-12 17:48:00,
2013-08-12 14:04:00,75.2,70.0,30.01,SE,133,3.0,7.0,84,0.00,,,0.11,weatherlink.com 1.10,2013-08-12 18:04:00,
2013-08-12 14:19:00,75.4,71.0,30.01,West,271,0.0,5.0,86,0.00,,,0.11,weatherlink.com 1.10,2013-08-12 18:19:00,
2013-08-12 14:34:00,74.3,70.0,30.01,SW,226,2.0,3.0,87,0.00,,,0.11,weatherlink.com 1.10,2013-08-12 18:34:00,
2013-08-12 14:49:00,73.1,69.0,30.01,SE,145,0.0,5.0,88,0.00,,,0.11,weatherlink.com 1.10,2013-08-12 18:49:00,
2013-08-12 15:04:00,72.6,69.0,30.01,West,276,1.0,2.0,89,0.00,,,0.11,weatherlink.com 1.10,2013-08-12 19:04:00,
2013-08-12 15:19:00,72.3,69.0,30.00,WNW,292,0.0,3.0,90,0.00,,,0.11,weatherlink.com 1.10,2013-08-12 19:19:00,
2013-08-12 15:34:00,72.3,69.0,30.00,WNW,301,0.0,3.0,90,0.00,,,0.11,weatherlink.com 1.10,2013-08-12 19:34:00,
2013-08-12 15:49:00,72.6,70.0,30.00,West,276,0.0,2.0,91,0.00,,,0.11,weatherlink.com 1.10,2013-08-12 19:49:00,
2013-08-12 16:04:00,72.6,70.0,29.99,SSE,164,2.0,4.0,90,0.00,,,0.11,weatherlink.com 1.10,2013-08-12 20:04:00,
2013-08-12 16:19:00,72.7,70.0,29.99,West,281,3.0,3.0,90,0.00,,,0.11,weatherlink.com 1.10,2013-08-12 20:19:00,
2013-08-12 16:34:00,72.6,69.0,29.98,West,278,0.0,2.0,89,0.00,,,0.11,weatherlink.com 1.10,2013-08-12 20:34:00,
2013-08-12 16:49:00,72.5,69.0,29.98,SSW,200,0.0,2.0,88,0.00,,,0.11,weatherlink.com 1.10,2013-08-12 20:49:00,
2013-08-12 17:04:00,72.5,69.0,29.98,SSE,153,0.0,2.0,88,0.00,,,0.11,weatherlink.com 1.10,2013-08-12 21:04:00,
2013-08-12 17:19:00,73.1,69.0,29.98,SSE,166,2.0,3.0,88,0.00,,,0.11,weatherlink.com 1.10,2013-08-12 21:19:00,
2013-08-12 17:34:00,73.5,69.0,29.98,SSW,210,0.0,5.0,85,0.00,,,0.11,weatherlink.com 1.10,2013-08-12 21:34:00,
2013-08-12 17:49:00,73.5,68.0,29.98,SSE,158,0.0,3.0,84,0.00,,,0.11,weatherlink.com 1.10,2013-08-12 21:49:00,
2013-08-12 18:04:00,73.3,69.0,29.98,SSW,203,0.0,2.0,86,0.00,,,0.11,weatherlink.com 1.10,2013-08-12 22:04:00,
2013-08-12 18:19:00,73.2,69.0,29.98,SSE,163,0.0,1.0,86,0.00,,,0.11,weatherlink.com 1.10,2013-08-12 22:19:00,
2013-08-12 18:34:00,72.7,68.0,29.98,SW,224,1.0,3.0,86,0.00,,,0.11,weatherlink.com 1.10,2013-08-12 22:34:00,
2013-08-12 18:49:00,72.3,68.0,29.98,West,259,0.0,1.0,87,0.00,,,0.11,weatherlink.com 1.10,2013-08-12 22:49:00,
2013-08-12 19:04:00,72.0,68.0,29.98,West,259,0.0,1.0,88,0.00,,,0.11,weatherlink.com 1.10,2013-08-12 23:04:00,
2013-08-12 19:19:00,71.6,68.0,29.98,West,259,0.0,0.0,89,0.00,,,0.11,weatherlink.com 1.10,2013-08-12 23:19:00,
2013-08-12 19:34:00,71.3,68.0,29.98,West,259,0.0,0.0,90,0.00,,,0.11,weatherlink.com 1.10,2013-08-12 23:34:00,
2013-08-12 19:49:00,70.8,68.0,29.97,West,259,0.0,0.0,90,0.00,,,0.11,weatherlink.com 1.10,2013-08-12 23:49:00,
2013-08-12 20:04:00,70.1,67.0,29.97,West,259,0.0,0.0,91,0.00,,,0.11,weatherlink.com 1.10,2013-08-13 00:04:00,
2013-08-12 20:19:00,69.5,67.0,29.97,West,259,0.0,1.0,92,0.00,,,0.11,weatherlink.com 1.10,2013-08-13 00:19:00,
2013-08-12 20:34:00,69.1,67.0,29.97,West,259,0.0,0.0,93,0.00,,,0.11,weatherlink.com 1.10,2013-08-13 00:34:00,
2013-08-12 20:49:00,68.8,67.0,29.97,West,259,0.0,0.0,94,0.00,,,0.11,weatherlink.com 1.10,2013-08-13 00:49:00,
2013-08-12 21:04:00,68.5,67.0,29.98,West,259,0.0,1.0,94,0.00,,,0.11,weatherlink.com 1.10,2013-08-13 01:04:00,
2013-08-12 21:19:00,68.4,67.0,29.97,West,259,0.0,0.0,94,0.00,,,0.11,weatherlink.com 1.10,2013-08-13 01:19:00,
2013-08-12 21:34:00,68.6,67.0,29.97,West,259,0.0,0.0,95,0.00,,,0.11,weatherlink.com 1.10,2013-08-13 01:34:00,
2013-08-12 21:49:00,68.7,67.0,29.97,West,259,0.0,0.0,95,0.00,,,0.11,weatherlink.com 1.10,2013-08-13 01:49:00,
2013-08-12 22:04:00,68.1,67.0,29.97,West,259,0.0,0.0,95,0.00,,,0.11,weatherlink.com 1.10,2013-08-13 02:04:00,
2013-08-12 22:19:00,67.8,66.0,29.96,West,259,0.0,0.0,95,0.00,,,0.11,weatherlink.com 1.10,2013-08-13 02:19:00,
2013-08-12 22:34:00,68.4,67.0,29.96,West,259,0.0,1.0,96,0.00,,,0.11,weatherlink.com 1.10,2013-08-13 02:34:00,
2013-08-12 22:49:00,68.6,68.0,29.96,West,259,0.0,0.0,96,0.00,,,0.11,weatherlink.com 1.10,2013-08-13 02:49:00,
2013-08-12 23:04:00,68.8,68.0,29.96,West,259,0.0,1.0,96,0.00,,,0.11,weatherlink.com 1.10,2013-08-13 03:04:00,
2013-08-12 23:19:00,69.2,68.0,29.96,West,259,0.0,1.0,96,0.00,,,0.11,weatherlink.com 1.10,2013-08-13 03:19:00,
2013-08-12 23:34:00,69.3,68.0,29.96,West,259,0.0,1.0,96,0.00,,,0.11,weatherlink.com 1.10,2013-08-13 03:34:00,